DAL1550 KRDU-KATL

Flight info

Callsign DAL1550
Flight time 1h 1m
Altitude 30000
Route SHPRD4 SHPRD LEAVI OZZZI2
Aircraft B739/M-SDE2E3FGHIRWXY/LB1

Departure

Time 2026-05-07 02:21
Airport Raleigh-Durham International Airport (KRDU)

Arrival

Time 2026-05-07 03:23
Airport Hartsfield Jackson Atlanta International Airport (KATL)
Time Latitude Longitude Altitude Speed Heading
2026-05-07 01:58 35.87698 -78.79480 411 ft 0 kts 136°
2026-05-07 01:59 35.87724 -78.79444 415 ft 0 kts 132°
2026-05-07 02:08 35.87734 -78.79458 413 ft 4 kts 125°
2026-05-07 02:08 35.87746 -78.79487 425 ft 4 kts 102°
2026-05-07 02:09 35.87747 -78.79519 421 ft 4 kts 71°
2026-05-07 02:09 35.87735 -78.79547 423 ft 4 kts 47°
2026-05-07 02:09 35.87731 -78.79552 414 ft 1 kts 45°
2026-05-07 02:12 35.87733 -78.79549 414 ft 1 kts 45°
2026-05-07 02:12 35.87750 -78.79528 425 ft 6 kts 45°
2026-05-07 02:13 35.87788 -78.79481 421 ft 10 kts 45°
2026-05-07 02:13 35.87840 -78.79416 416 ft 12 kts 45°
2026-05-07 02:13 35.87903 -78.79338 430 ft 14 kts 45°
2026-05-07 02:13 35.87984 -78.79239 421 ft 19 kts 44°
2026-05-07 02:14 35.88083 -78.79117 428 ft 21 kts 45°
2026-05-07 02:14 35.88188 -78.78983 421 ft 22 kts 45°
2026-05-07 02:14 35.88295 -78.78850 422 ft 22 kts 45°
2026-05-07 02:14 35.88400 -78.78720 413 ft 21 kts 45°
2026-05-07 02:15 35.88500 -78.78595 423 ft 20 kts 45°
2026-05-07 02:15 35.88599 -78.78474 421 ft 20 kts 45°
2026-05-07 02:15 35.88695 -78.78355 427 ft 19 kts 45°
2026-05-07 02:15 35.88787 -78.78241 424 ft 18 kts 44°
2026-05-07 02:16 35.88877 -78.78131 420 ft 18 kts 46°
2026-05-07 02:16 35.88960 -78.78023 418 ft 17 kts 53°
2026-05-07 02:16 35.89010 -78.77892 420 ft 17 kts 55°
2026-05-07 02:16 35.89073 -78.77810 414 ft 12 kts 45°
2026-05-07 02:17 35.89131 -78.77738 417 ft 12 kts 45°
2026-05-07 02:17 35.89185 -78.77668 420 ft 11 kts 46°
2026-05-07 02:17 35.89237 -78.77656 420 ft 6 kts 332°
2026-05-07 02:17 35.89242 -78.77660 424 ft 0 kts 325°
2026-05-07 02:18 35.89249 -78.77668 424 ft 4 kts 322°
2026-05-07 02:18 35.89279 -78.77701 426 ft 7 kts 315°
2026-05-07 02:19 35.89291 -78.77715 426 ft 2 kts 315°
2026-05-07 02:19 35.89295 -78.77721 427 ft 0 kts 315°
2026-05-07 02:19 35.89297 -78.77723 427 ft 2 kts 315°
2026-05-07 02:20 35.89320 -78.77752 428 ft 7 kts 314°
2026-05-07 02:20 35.89358 -78.77805 419 ft 10 kts 295°
2026-05-07 02:20 35.89314 -78.77894 420 ft 21 kts 225°
2026-05-07 02:20 35.89036 -78.78236 416 ft 91 kts 225°
2026-05-07 02:21 35.88442 -78.78966 415 ft 148 kts 225°
2026-05-07 02:21 35.87632 -78.79960 728 ft 168 kts 225°
2026-05-07 02:21 35.86815 -78.80989 1393 ft 171 kts 226°
2026-05-07 02:21 35.86002 -78.82043 2130 ft 168 kts 226°
2026-05-07 02:22 35.85191 -78.83094 2659 ft 178 kts 226°
2026-05-07 02:22 35.84277 -78.84264 2828 ft 200 kts 230°
2026-05-07 02:22 35.83788 -78.85915 3113 ft 216 kts 266°
2026-05-07 02:22 35.83838 -78.87785 3629 ft 220 kts 268°
2026-05-07 02:23 35.83871 -78.89711 3998 ft 232 kts 268°
2026-05-07 02:23 35.83891 -78.91703 4536 ft 239 kts 268°
2026-05-07 02:23 35.83901 -78.93750 5395 ft 238 kts 268°
2026-05-07 02:23 35.83903 -78.95812 6131 ft 242 kts 269°
2026-05-07 02:24 35.83897 -78.97913 6828 ft 247 kts 269°
2026-05-07 02:24 35.83885 -79.00035 7590 ft 248 kts 269°
2026-05-07 02:24 35.83870 -79.02168 8318 ft 250 kts 268°
2026-05-07 02:24 35.83851 -79.04331 9024 ft 254 kts 268°
2026-05-07 02:25 35.83830 -79.06514 9751 ft 256 kts 268°
2026-05-07 02:25 35.83806 -79.08738 10320 ft 264 kts 268°
2026-05-07 02:25 35.83780 -79.11081 10463 ft 287 kts 268°
2026-05-07 02:25 35.83750 -79.13619 10618 ft 308 kts 268°
2026-05-07 02:26 35.83717 -79.16347 10799 ft 326 kts 268°
2026-05-07 02:26 35.83683 -79.19181 11269 ft 332 kts 268°
2026-05-07 02:26 35.83648 -79.22023 11846 ft 334 kts 268°
2026-05-07 02:26 35.83613 -79.24878 11955 ft 331 kts 268°
2026-05-07 02:27 35.83577 -79.27684 11998 ft 331 kts 268°
2026-05-07 02:27 35.83522 -79.30529 12005 ft 335 kts 266°
2026-05-07 02:27 35.83343 -79.33411 12010 ft 335 kts 264°
2026-05-07 02:27 35.83119 -79.36243 12010 ft 334 kts 264°
2026-05-07 02:28 35.82885 -79.39095 12018 ft 334 kts 264°
2026-05-07 02:28 35.82655 -79.41952 12024 ft 334 kts 264°
2026-05-07 02:28 35.82432 -79.44804 12029 ft 334 kts 264°
2026-05-07 02:28 35.82211 -79.47673 12299 ft 339 kts 264°
2026-05-07 02:29 35.81992 -79.50538 12983 ft 339 kts 264°
2026-05-07 02:29 35.81764 -79.53436 13692 ft 340 kts 262°
2026-05-07 02:29 35.81385 -79.56317 14267 ft 342 kts 259°
2026-05-07 02:29 35.80901 -79.59203 14872 ft 344 kts 258°
2026-05-07 02:30 35.80387 -79.62089 15521 ft 344 kts 258°
2026-05-07 02:30 35.79874 -79.64955 16101 ft 347 kts 258°
2026-05-07 02:30 35.79354 -79.67884 16647 ft 351 kts 259°
2026-05-07 02:30 35.78839 -79.70825 17269 ft 352 kts 259°
2026-05-07 02:31 35.78324 -79.73786 17905 ft 353 kts 259°
2026-05-07 02:31 35.77816 -79.76722 18468 ft 355 kts 260°
2026-05-07 02:31 35.77301 -79.79712 18959 ft 357 kts 260°
2026-05-07 02:31 35.76790 -79.82672 19525 ft 357 kts 260°
2026-05-07 02:32 35.76273 -79.85669 20052 ft 358 kts 260°
2026-05-07 02:32 35.75755 -79.88676 20526 ft 361 kts 260°
2026-05-07 02:32 35.75230 -79.91710 21014 ft 362 kts 260°
2026-05-07 02:32 35.74703 -79.94759 21482 ft 365 kts 260°
2026-05-07 02:33 35.74172 -79.97825 21963 ft 366 kts 260°
2026-05-07 02:33 35.73637 -80.00902 22433 ft 368 kts 260°
2026-05-07 02:33 35.73100 -80.03993 22868 ft 370 kts 260°
2026-05-07 02:33 35.72559 -80.07097 23293 ft 372 kts 260°
2026-05-07 02:34 35.72020 -80.10185 23668 ft 374 kts 260°
2026-05-07 02:34 35.71472 -80.13325 24015 ft 376 kts 260°
2026-05-07 02:34 35.70918 -80.16485 24350 ft 378 kts 260°
2026-05-07 02:34 35.70366 -80.19633 24844 ft 376 kts 260°
2026-05-07 02:35 35.69814 -80.22773 25335 ft 375 kts 259°
2026-05-07 02:35 35.69261 -80.25913 25809 ft 374 kts 259°
2026-05-07 02:35 35.68718 -80.28992 26302 ft 372 kts 259°
2026-05-07 02:35 35.68170 -80.32099 26797 ft 371 kts 259°
2026-05-07 02:36 35.67622 -80.35196 27269 ft 370 kts 259°
2026-05-07 02:36 35.67074 -80.38291 27791 ft 369 kts 259°
2026-05-07 02:36 35.66528 -80.41370 28345 ft 367 kts 259°
2026-05-07 02:36 35.65985 -80.44429 28888 ft 365 kts 259°
2026-05-07 02:37 35.65404 -80.47472 29391 ft 366 kts 256°
2026-05-07 02:37 35.64536 -80.50421 29851 ft 368 kts 250°
2026-05-07 02:37 35.63539 -80.53349 29972 ft 374 kts 250°
2026-05-07 02:37 35.62525 -80.56325 30007 ft 379 kts 250°
2026-05-07 02:38 35.60474 -80.62351 30004 ft 389 kts 250°
2026-05-07 02:38 35.58364 -80.68562 30001 ft 395 kts 250°
2026-05-07 02:39 35.56257 -80.74760 30000 ft 395 kts 250°
2026-05-07 02:39 35.54139 -80.80984 30002 ft 394 kts 250°
2026-05-07 02:40 35.52043 -80.87131 29984 ft 378 kts 250°
2026-05-07 02:40 35.50049 -80.92961 29987 ft 367 kts 250°
2026-05-07 02:41 35.48083 -80.98715 29995 ft 367 kts 250°
2026-05-07 02:41 35.46100 -81.04507 30002 ft 368 kts 250°
2026-05-07 02:42 35.44120 -81.10276 29999 ft 368 kts 250°
2026-05-07 02:42 35.42130 -81.16062 29962 ft 369 kts 250°
2026-05-07 02:43 35.40126 -81.21879 29994 ft 371 kts 250°
2026-05-07 02:43 35.38119 -81.27694 29995 ft 374 kts 250°
2026-05-07 02:44 35.36081 -81.33586 29980 ft 376 kts 250°
2026-05-07 02:44 35.34379 -81.38495 29962 ft 376 kts 250°
2026-05-07 02:45 35.32332 -81.44389 29958 ft 375 kts 250°
2026-05-07 02:45 35.30292 -81.50253 29943 ft 373 kts 250°
2026-05-07 02:46 35.28257 -81.56091 29932 ft 371 kts 250°
2026-05-07 02:46 35.27243 -81.58998 30043 ft 370 kts 250°
2026-05-07 02:46 35.26243 -81.61860 30044 ft 370 kts 250°
2026-05-07 02:47 35.24223 -81.67637 30068 ft 368 kts 250°
2026-05-07 02:47 35.22206 -81.73392 30038 ft 367 kts 250°
2026-05-07 02:48 35.20194 -81.79121 30008 ft 365 kts 250°
2026-05-07 02:48 35.18202 -81.84786 29997 ft 364 kts 249°
2026-05-07 02:49 35.16195 -81.90483 29977 ft 365 kts 249°
2026-05-07 02:49 35.14176 -81.96203 29969 ft 366 kts 249°
2026-05-07 02:50 35.12162 -82.01898 29977 ft 368 kts 249°
2026-05-07 02:50 35.10144 -82.07588 29966 ft 358 kts 249°
2026-05-07 02:51 35.08174 -82.13134 29997 ft 355 kts 249°
2026-05-07 02:51 35.06209 -82.18665 30007 ft 355 kts 249°
2026-05-07 02:52 35.04251 -82.24162 30012 ft 356 kts 249°
2026-05-07 02:52 35.02276 -82.29698 30017 ft 356 kts 249°
2026-05-07 02:53 35.00017 -82.35114 29996 ft 361 kts 243°
2026-05-07 02:53 34.97365 -82.40482 30011 ft 376 kts 242°
2026-05-07 02:54 34.94654 -82.46012 30032 ft 388 kts 242°
2026-05-07 02:54 34.91868 -82.51773 29974 ft 398 kts 243°
2026-05-07 02:55 34.89065 -82.57585 29977 ft 397 kts 243°
2026-05-07 02:55 34.86221 -82.63297 29978 ft 397 kts 239°
2026-05-07 02:56 34.83002 -82.68771 29976 ft 397 kts 238°
2026-05-07 02:56 34.79821 -82.74163 29966 ft 384 kts 238°
2026-05-07 02:57 34.76791 -82.79423 29951 ft 379 kts 240°
2026-05-07 02:57 34.73778 -82.84805 29989 ft 388 kts 240°
2026-05-07 02:58 34.70746 -82.90192 29980 ft 387 kts 240°
2026-05-07 02:58 34.67700 -82.95580 29980 ft 385 kts 240°
2026-05-07 02:59 34.66187 -82.98253 29597 ft 384 kts 240°
2026-05-07 02:59 34.64681 -83.00911 29122 ft 379 kts 240°
2026-05-07 02:59 34.63201 -83.03520 28627 ft 373 kts 240°
2026-05-07 02:59 34.61727 -83.06118 28029 ft 371 kts 240°
2026-05-07 03:00 34.60289 -83.08652 27516 ft 367 kts 240°
2026-05-07 03:00 34.58847 -83.11194 26999 ft 364 kts 240°
2026-05-07 03:00 34.57412 -83.13717 26497 ft 361 kts 240°
2026-05-07 03:00 34.55986 -83.16224 25985 ft 359 kts 240°
2026-05-07 03:01 34.54573 -83.18705 25504 ft 356 kts 240°
2026-05-07 03:01 34.53169 -83.21164 25008 ft 352 kts 241°
2026-05-07 03:01 34.51782 -83.23597 24545 ft 349 kts 242°
2026-05-07 03:01 34.50425 -83.25980 24065 ft 346 kts 242°
2026-05-07 03:02 34.49055 -83.28383 23578 ft 344 kts 242°
2026-05-07 03:02 34.47693 -83.30761 23010 ft 342 kts 242°
2026-05-07 03:02 34.46331 -83.33110 22496 ft 338 kts 241°
2026-05-07 03:02 34.44979 -83.35431 21962 ft 334 kts 241°
2026-05-07 03:03 34.43658 -83.37699 21479 ft 331 kts 241°
2026-05-07 03:03 34.42330 -83.39978 21015 ft 328 kts 241°
2026-05-07 03:03 34.41021 -83.42225 20544 ft 325 kts 241°
2026-05-07 03:03 34.39722 -83.44454 20144 ft 323 kts 241°
2026-05-07 03:04 34.38430 -83.46671 19708 ft 321 kts 241°
2026-05-07 03:04 34.37147 -83.48870 19272 ft 319 kts 241°
2026-05-07 03:04 34.35873 -83.51055 18837 ft 317 kts 240°
2026-05-07 03:04 34.34598 -83.53237 18400 ft 316 kts 240°
2026-05-07 03:05 34.33345 -83.55382 17918 ft 315 kts 240°
2026-05-07 03:05 34.32082 -83.57543 17446 ft 313 kts 240°
2026-05-07 03:05 34.30828 -83.59688 16964 ft 311 kts 239°
2026-05-07 03:05 34.29580 -83.61826 16518 ft 310 kts 238°
2026-05-07 03:06 34.28179 -83.63818 16086 ft 312 kts 228°
2026-05-07 03:06 34.26548 -83.65560 15668 ft 312 kts 226°
2026-05-07 03:06 34.24898 -83.67269 15233 ft 311 kts 225°
2026-05-07 03:06 34.23275 -83.68952 14812 ft 310 kts 225°
2026-05-07 03:07 34.21644 -83.70658 14363 ft 310 kts 225°
2026-05-07 03:07 34.20012 -83.72377 13932 ft 310 kts 225°
2026-05-07 03:07 34.18394 -83.74088 13517 ft 307 kts 225°
2026-05-07 03:07 34.16813 -83.75762 13116 ft 304 kts 225°
2026-05-07 03:08 34.15229 -83.77442 12718 ft 301 kts 225°
2026-05-07 03:08 34.13666 -83.79099 12430 ft 295 kts 225°
2026-05-07 03:08 34.12157 -83.80698 12360 ft 282 kts 225°
2026-05-07 03:08 34.10711 -83.82229 12258 ft 271 kts 225°
2026-05-07 03:09 34.09312 -83.83713 11979 ft 266 kts 225°
2026-05-07 03:09 34.07928 -83.85199 11630 ft 265 kts 225°
2026-05-07 03:09 34.06550 -83.86682 11290 ft 264 kts 225°
2026-05-07 03:09 34.05184 -83.88150 11045 ft 259 kts 225°
2026-05-07 03:10 34.03859 -83.89574 10733 ft 258 kts 225°
2026-05-07 03:10 34.02519 -83.91012 10394 ft 256 kts 225°
2026-05-07 03:10 34.01182 -83.92446 9996 ft 259 kts 225°
2026-05-07 03:10 33.99829 -83.93897 9647 ft 258 kts 225°
2026-05-07 03:11 33.98492 -83.95327 9349 ft 255 kts 224°
2026-05-07 03:11 33.96973 -83.96394 8972 ft 261 kts 202°
2026-05-07 03:11 33.95178 -83.96803 8647 ft 266 kts 188°
2026-05-07 03:11 33.93319 -83.96778 8332 ft 267 kts 185°
2026-05-07 03:12 33.91458 -83.96669 8043 ft 267 kts 184°
2026-05-07 03:12 33.89601 -83.96559 8033 ft 267 kts 184°
2026-05-07 03:12 33.87753 -83.96460 8014 ft 266 kts 184°
2026-05-07 03:12 33.85902 -83.96369 8000 ft 266 kts 184°
2026-05-07 03:13 33.84067 -83.96284 7994 ft 266 kts 185°
2026-05-07 03:13 33.82210 -83.96202 7996 ft 267 kts 185°
2026-05-07 03:13 33.80343 -83.96123 7968 ft 267 kts 185°
2026-05-07 03:13 33.78485 -83.96046 7978 ft 267 kts 185°
2026-05-07 03:14 33.76625 -83.95969 7979 ft 266 kts 185°
2026-05-07 03:14 33.74879 -83.96169 7941 ft 243 kts 205°
2026-05-07 03:14 33.71954 -83.97615 7943 ft 213 kts 208°
2026-05-07 03:15 33.70597 -83.98293 7952 ft 210 kts 208°
2026-05-07 03:15 33.69255 -83.98964 7954 ft 208 kts 208°
2026-05-07 03:15 33.67927 -83.99626 7980 ft 205 kts 208°
2026-05-07 03:15 33.66606 -84.00292 7970 ft 208 kts 211°
2026-05-07 03:16 33.65540 -84.01379 7960 ft 203 kts 238°
2026-05-07 03:16 33.65102 -84.02959 7808 ft 201 kts 265°
2026-05-07 03:16 33.65080 -84.04631 7360 ft 200 kts 264°
2026-05-07 03:16 33.65029 -84.06321 6830 ft 203 kts 265°
2026-05-07 03:17 33.64996 -84.08015 6380 ft 202 kts 265°
2026-05-07 03:17 33.64977 -84.09682 5888 ft 202 kts 265°
2026-05-07 03:17 33.64966 -84.11377 5373 ft 203 kts 265°
2026-05-07 03:17 33.64961 -84.13089 4844 ft 206 kts 265°
2026-05-07 03:18 33.64959 -84.14805 4376 ft 205 kts 264°
2026-05-07 03:18 33.64963 -84.16504 4027 ft 198 kts 265°
2026-05-07 03:18 33.64978 -84.18063 3956 ft 181 kts 264°
2026-05-07 03:18 33.64984 -84.19518 3990 ft 172 kts 263°
2026-05-07 03:19 33.64982 -84.20962 3996 ft 173 kts 263°
2026-05-07 03:19 33.64973 -84.22424 3908 ft 177 kts 263°
2026-05-07 03:19 33.64969 -84.23929 3690 ft 182 kts 264°
2026-05-07 03:19 33.64972 -84.25428 3447 ft 178 kts 261°
2026-05-07 03:20 33.64997 -84.26892 3255 ft 174 kts 262°
2026-05-07 03:20 33.64974 -84.28357 3020 ft 178 kts 262°
2026-05-07 03:20 33.64964 -84.29837 2783 ft 176 kts 261°
2026-05-07 03:20 33.64961 -84.31289 2574 ft 171 kts 262°
2026-05-07 03:21 33.64961 -84.32675 2335 ft 158 kts 263°
2026-05-07 03:21 33.64961 -84.33921 2141 ft 143 kts 262°
2026-05-07 03:21 33.64959 -84.35103 1990 ft 141 kts 261°
2026-05-07 03:21 33.64955 -84.36271 1754 ft 145 kts 264°
2026-05-07 03:22 33.64956 -84.37508 1600 ft 150 kts 265°
2026-05-07 03:22 33.64952 -84.38747 1410 ft 146 kts 266°
2026-05-07 03:22 33.64957 -84.39954 1218 ft 142 kts 264°
2026-05-07 03:22 33.64958 -84.41119 1018 ft 138 kts 265°
2026-05-07 03:23 33.64953 -84.42105 1006 ft 88 kts 269°
2026-05-07 03:23 33.64943 -84.42585 1006 ft 35 kts 260°
2026-05-07 03:23 33.64845 -84.42848 1005 ft 32 kts 237°
2026-05-07 03:23 33.64787 -84.43038 1006 ft 25 kts 267°
2026-05-07 03:24 33.64791 -84.43241 1006 ft 20 kts 271°
2026-05-07 03:24 33.64836 -84.43395 1005 ft 19 kts 287°
2026-05-07 03:24 33.64844 -84.43552 1006 ft 19 kts 269°
2026-05-07 03:24 33.64845 -84.43707 1005 ft 18 kts 270°
2026-05-07 03:25 33.64835 -84.43854 1005 ft 18 kts 245°
2026-05-07 03:25 33.64784 -84.43981 1005 ft 17 kts 266°
2026-05-07 03:25 33.64784 -84.44120 1005 ft 16 kts 270°
2026-05-07 03:25 33.64781 -84.44252 1005 ft 16 kts 255°
2026-05-07 03:26 33.64702 -84.44332 1005 ft 15 kts 194°
2026-05-07 03:26 33.64601 -84.44300 1005 ft 16 kts 145°
2026-05-07 03:26 33.64573 -84.44175 1005 ft 17 kts 97°
2026-05-07 03:26 33.64478 -84.44108 1005 ft 17 kts 158°
2026-05-07 03:27 33.64428 -84.43991 1005 ft 18 kts 85°
2026-05-07 03:27 33.64446 -84.43834 1005 ft 20 kts 82°
2026-05-07 03:27 33.64429 -84.43733 1005 ft 11 kts 150°
2026-05-07 03:27 33.64349 -84.43721 1005 ft 12 kts 180°
2026-05-07 03:28 33.64258 -84.43722 1005 ft 14 kts 180°
2026-05-07 03:28 33.64161 -84.43723 1005 ft 15 kts 181°
2026-05-07 03:28 33.64056 -84.43724 1005 ft 15 kts 179°
2026-05-07 03:28 33.63953 -84.43722 1005 ft 14 kts 179°
2026-05-07 03:29 33.63902 -84.43749 1005 ft 6 kts 272°
2026-05-07 03:29 33.63914 -84.43784 1005 ft 8 kts 292°
2026-05-07 03:29 33.63923 -84.43852 1005 ft 7 kts 270°
2026-05-07 03:29 33.63923 -84.43862 1005 ft 0 kts 270°